logo
App data

Guns of Infinity

As commander of a squadron of cavalry, what will you sacrifice to win the war of gunpowder and magic? Fight for power, riches, love, or glory!
Store | Hub | SteamDB | Site
Developer: Hosted Games Publisher: Hosted Games
Genre: Adventure, Indie, RPG
Languages: English
Tags: Adventure (24), Indie (24), RPG (23), Choose Your Own Adventure (17), Text-Based (11), Interactive Fiction (7), Choices Matter (5)
Category: Single-player, Steam Achievements, Captions available, Steam Cloud
Release date: Mar 29, 2016
Price: $7.99
Old userscore: 96% Owners: 0 .. 20,000
Followers: 276
Peak concurrent players yesterday: 16

Steam Spy is still in beta, so expect major bugs.

Owners data:

Access restricted.

This feature is only available to users with special access rights. Sorry.

If you want to proceed, you need to register or log in first and then back Steam Spy on Patreon. Look for Indie or Pro pledge.

Don't forget to use the same email as on Steam Spy!

If you've recently backed Steam Spy on Patreon, please note, that it might take around 15 minutes for your access rights to sync. In most cases you'll need to re-login on Steam Spy too.

Audience in 2 weeks:

Access restricted.

This feature is only available to users with special access rights. Sorry.

If you want to proceed, you need to register or log in first and then back Steam Spy on Patreon. Look for Indie or Pro pledge.

Don't forget to use the same email as on Steam Spy!

If you've recently backed Steam Spy on Patreon, please note, that it might take around 15 minutes for your access rights to sync. In most cases you'll need to re-login on Steam Spy too.

Peak daily concurrent players:

CCU data courtesy of SteamDB. Used with permission.

Hourly concurrent players:

Followers over time

Access restricted.

This feature is only available to users with special access rights. Sorry.

If you want to proceed, you need to register or log in first and then back Steam Spy on Patreon. Look for Indie or Pro pledge.

Don't forget to use the same email as on Steam Spy!

If you've recently backed Steam Spy on Patreon, please note, that it might take around 15 minutes for your access rights to sync. In most cases you'll need to re-login on Steam Spy too.

Views for top 50 videos on YouTube for this game:

Games similar to this one:

# Game Release date
Price
Score rank
(Userscore / Metascore)
Owners
Players
Playtime (Median)
1 Critter Crunch Sep 11, 2012 $6.99N/A (N/A)20,000 .. 50,0000%00:00 (00:00)
2 BIT.TRIP BEAT Nov 2, 2010 $5.99N/A (N/A)200,000 .. 500,0000%00:00 (00:00)
3 Super Splatters Jun 26, 2013 N/AN/A (N/A/73%)50,000 .. 100,0000%00:00 (00:00)
4 Ms. Splosion Man Apr 3, 2013 $9.99N/A (N/A)50,000 .. 100,0000%00:00 (00:00)
5 SOL: Exodus Jan 25, 2012 $7.99N/A (N/A/57%)50,000 .. 100,0000%00:00 (00:00)
6 Titan Attacks! Feb 3, 2012 $12.99N/A (N/A)50,000 .. 100,0000%00:00 (00:00)
7 BIT.TRIP CORE Oct 2, 2012 $9.99N/A (N/A)50,000 .. 100,0000%00:00 (00:00)
8 BIT.TRIP VOID Dec 19, 2012 $9.99N/A (N/A)20,000 .. 50,0000%00:00 (00:00)
9 Tales From Space: Mutant Blobs Attack Aug 15, 2012 $9.99N/A (N/A/83%)100,000 .. 200,0000%00:00 (00:00)
10 All Zombies Must Die!: Scorepocalypse Apr 19, 2012 $4.99N/A (N/A)20,000 .. 50,0000%00:00 (00:00)
11 Unmechanical Aug 8, 2012 $9.99N/A (N/A/74%)100,000 .. 200,0000%00:00 (00:00)
12 Sugar Cube: Bittersweet Factory Nov 7, 2012 $6.99N/A (N/A)20,000 .. 50,0000%00:00 (00:00)
13 Party of Sin Dec 13, 2012 $5.99N/A (N/A)50,000 .. 100,0000%00:00 (00:00)
14 Home Jun 1, 2012 $4.99N/A (N/A/69%)200,000 .. 500,0000%00:00 (00:00)
15 Ultratron Mar 18, 2013 $12.99N/A (N/A)100,000 .. 200,0000%00:00 (00:00)
16 Cargo Commander Nov 1, 2012 $2.99N/A (N/A)50,000 .. 100,0000%00:00 (00:00)
17 Puddle Nov 9, 2012 $7.99N/A (N/A)100,000 .. 200,0000%00:00 (00:00)
18 Retro/Grade Mar 20, 2013 $9.99N/A (N/A)50,000 .. 100,0000%00:00 (00:00)
19 Papo & Yo Apr 18, 2013 $14.99N/A (N/A/70%)200,000 .. 500,0000%00:00 (00:00)
20 Dream Jul 31, 2015 $8.99N/A (N/A/59%)50,000 .. 100,0000%00:00 (00:00)
21 Bad Hotel Oct 16, 2013 $4.99N/A (N/A)50,000 .. 100,0000%00:00 (00:00)
22 Godus Apr 29, 1984 $14.99N/A (N/A)200,000 .. 500,0000%00:00 (00:00)
23 Wake $4.99N/A (N/A)0 .. 20,0000%00:00 (00:00)
24 Zack Zero Apr 29, 2013 $2.99N/A (N/A)50,000 .. 100,0000%00:00 (00:00)
25 Element4l May 24, 2013 $8.99N/A (N/A/77%)50,000 .. 100,0000%00:00 (00:00)
26 Intake Nov 6, 2013 $9.99N/A (N/A)20,000 .. 50,0000%00:00 (00:00)
27 Super Puzzle Platformer Deluxe May 24, 2013 $7.99N/A (N/A)20,000 .. 50,0000%00:00 (00:00)
28 Poöf Nov 8, 2013 $6.99N/A (N/A)20,000 .. 50,0000%00:00 (00:00)
29 The Novelist Dec 10, 2013 $4.99N/A (N/A/66%)100,000 .. 200,0000%00:00 (00:00)
30 Knytt Underground Oct 25, 2013 $6.99N/A (N/A)50,000 .. 100,0000%00:00 (00:00)
31 Omegalodon Sep 20, 2013 $9.99N/A (N/A)20,000 .. 50,0000%00:00 (00:00)
32 Solar Flux Oct 24, 2013 $9.99N/A (N/A)100,000 .. 200,0000%00:00 (00:00)
33 Maia Nov 23, 2018 $24.99N/A (N/A)20,000 .. 50,0000%00:00 (00:00)
34 FOTONICA Nov 6, 2014 $14.99N/A (N/A/71%)50,000 .. 100,0000%00:00 (00:00)
35 Gentlemen! Nov 5, 2013 $4.99N/A (N/A)20,000 .. 50,0000%00:00 (00:00)
36 Escape Goat 2 Mar 24, 2014 $4.99N/A (N/A/76%)50,000 .. 100,0000%00:00 (00:00)
37 Survivor Squad Jan 21, 2015 $2.99N/A (N/A)100,000 .. 200,0000%00:00 (00:00)
38 Montague's Mount Nov 19, 2013 $4.99N/A (N/A/39%)20,000 .. 50,0000%00:00 (00:00)
39 Ballpoint Universe - Infinite Dec 17, 2013 $3.99N/A (N/A)50,000 .. 100,0000%00:00 (00:00)
40 STARWHAL Sep 29, 2014 $11.99N/A (N/A)50,000 .. 100,0000%00:00 (00:00)
41 Full Bore May 6, 2014 $14.99N/A (N/A/72%)20,000 .. 50,0000%00:00 (00:00)
42 Imagine Me Dec 9, 2014 $2.99N/A (N/A)20,000 .. 50,0000%00:00 (00:00)
43 Procyon Feb 26, 2014 $3.99N/A (N/A)20,000 .. 50,0000%00:00 (00:00)
44 Jones On Fire Mar 27, 2015 $2.99N/A (N/A)50,000 .. 100,0000%00:00 (00:00)
45 10 Second Ninja Mar 5, 2014 $1.99N/A (N/A/72%)50,000 .. 100,0000%00:00 (00:00)
46 Labyrinthine Dreams May 26, 2015 $1.99N/A (N/A)100,000 .. 200,0000%00:00 (00:00)
47 Pulstar Jun 11, 2014 $1.99N/A (N/A)20,000 .. 50,0000%00:00 (00:00)
48 Imagine Earth May 25, 2021 $24.99N/A (N/A/78%)50,000 .. 100,0000%00:00 (00:00)
49 Munin Jun 10, 2014 $4.99N/A (N/A/68%)200,000 .. 500,0000%00:00 (00:00)
50 Rabbit Hole 3D: Steam Edition Apr 25, 2014 $2.99N/A (N/A)50,000 .. 100,0000%00:00 (00:00)
51 Kromaia Oct 23, 2014 $19.99N/A (N/A/68%)20,000 .. 50,0000%00:00 (00:00)
52 ReignMaker Apr 16, 2014 $14.99N/A (N/A)50,000 .. 100,0000%00:00 (00:00)
53 Autocraft Sep 20, 2017 $9.99N/A (N/A)0 .. 20,0000%00:00 (00:00)
54 Volt Apr 14, 2014 $0.99N/A (N/A)100,000 .. 200,0000%00:00 (00:00)
55 Three Dead Zed Jul 7, 2014 $5.99N/A (N/A)100,000 .. 200,0000%00:00 (00:00)
56 Uriel's Chasm Sep 12, 2014 $4.99N/A (N/A)200,000 .. 500,0000%00:00 (00:00)
57 Cosmochoria Apr 27, 2015 $9.99N/A (N/A)20,000 .. 50,0000%00:00 (00:00)
58 Arson and Plunder: Unleashed Sep 25, 2015 $4.99N/A (N/A)20,000 .. 50,0000%00:00 (00:00)
59 Road Not Taken Aug 5, 2014 $14.99N/A (N/A/75%)50,000 .. 100,0000%00:00 (00:00)
60 Pivvot Jul 14, 2014 $4.99N/A (N/A)20,000 .. 50,0000%00:00 (00:00)
61 Stranded May 20, 2014 $0.99N/A (N/A)20,000 .. 50,0000%00:00 (00:00)
62 The Promised Land Jul 11, 2012 $6.99N/A (N/A)20,000 .. 50,0000%00:00 (00:00)
63 Dreaming Sarah Mar 12, 2015 $5.99N/A (N/A)200,000 .. 500,0000%00:00 (00:00)
64 Captain Forever Remix Jun 3, 2016 $9.99N/A (N/A)20,000 .. 50,0000%00:00 (00:00)
65 Frederic: Resurrection of Music May 16, 2014 $2.99N/A (N/A)100,000 .. 200,0000%00:00 (00:00)
66 Frederic: Evil Strikes Back May 23, 2014 $7.99N/A (N/A)200,000 .. 500,0000%00:00 (00:00)
67 Rhythm Destruction Jun 16, 2014 $4.99N/A (N/A)50,000 .. 100,0000%00:00 (00:00)
68 Ballad of Solar May 22, 2014 $6.99N/A (N/A)20,000 .. 50,0000%00:00 (00:00)
69 Boson X Sep 15, 2014 $2.99N/A (N/A)200,000 .. 500,0000%00:00 (00:00)
70 TRISTOY Jan 15, 2015 $0.69N/A (N/A/49%)20,000 .. 50,0000%00:00 (00:00)
71 Concursion Jun 6, 2014 $4.99N/A (N/A/66%)20,000 .. 50,0000%00:00 (00:00)
72 Iron Fisticle Sep 16, 2014 $8.99N/A (N/A)50,000 .. 100,0000%00:00 (00:00)
73 Fancy Skulls Jun 16, 2014 $8.99N/A (N/A)50,000 .. 100,0000%00:00 (00:00)
74 Curses 'N Chaos Aug 18, 2015 $9.99N/A (N/A)20,000 .. 50,0000%00:00 (00:00)
75 Back to Bed Aug 6, 2014 $5.99N/A (N/A)1,000,000 .. 2,000,0000%00:00 (00:00)
76 NEON STRUCT May 20, 2015 $17.99N/A (N/A/62%)50,000 .. 100,0000%00:00 (00:00)
77 OTTTD Aug 6, 2014 $7.99N/A (N/A)20,000 .. 50,0000%00:00 (00:00)
78 The Masterplan Jun 4, 2015 $19.99N/A (N/A/68%)50,000 .. 100,0000%00:00 (00:00)
79 Amazing Princess Sarah Aug 18, 2014 $4.99N/A (N/A)20,000 .. 50,0000%00:00 (00:00)
80 Hangeki Aug 11, 2014 $9.99N/A (N/A)20,000 .. 50,0000%00:00 (00:00)
81 A City Sleeps Oct 16, 2014 $9.99N/A (N/A)20,000 .. 50,0000%00:00 (00:00)
82 Velocibox Sep 8, 2014 $4.99N/A (N/A)50,000 .. 100,0000%00:00 (00:00)
83 Squishy the Suicidal Pig Oct 23, 2014 $5.99N/A (N/A)200,000 .. 500,0000%00:00 (00:00)
84 Great Permutator Sep 15, 2014 $6.99N/A (N/A)20,000 .. 50,0000%00:00 (00:00)
85 Chariot Nov 12, 2014 $14.99N/A (N/A/76%)100,000 .. 200,0000%00:00 (00:00)
86 Ninja Pizza Girl Sep 30, 2015 $6.99N/A (N/A/82%)50,000 .. 100,0000%00:00 (00:00)
87 iO Dec 5, 2014 $4.99N/A (N/A)20,000 .. 50,0000%00:00 (00:00)
88 Horizon Shift May 29, 2015 $4.99N/A (N/A)100,000 .. 200,0000%00:00 (00:00)
89 The Deer God Feb 27, 2015 $14.99N/A (N/A/59%)20,000 .. 50,0000%00:00 (00:00)
90 Pix the Cat Jan 29, 2015 $4.99N/A (N/A/77%)100,000 .. 200,0000%00:00 (00:00)
91 Tulpa Jan 29, 2015 $2.99N/A (N/A)50,000 .. 100,0000%00:00 (00:00)
92 Phoenix Force Nov 13, 2014 $0.99N/A (N/A)100,000 .. 200,0000%00:00 (00:00)
93 Marvin's Mittens Dec 17, 2014 $5.99N/A (N/A)20,000 .. 50,0000%00:00 (00:00)
94 A Druid's Duel Feb 25, 2015 $7.99N/A (N/A/70%)20,000 .. 50,0000%00:00 (00:00)
95 Dwarf Tower Dec 23, 2014 $0.99N/A (N/A)20,000 .. 50,0000%00:00 (00:00)
96 Sky Mercenaries Dec 16, 2014 $9.99N/A (N/A)20,000 .. 50,0000%00:00 (00:00)
97 Bloody Streets Mar 12, 2015 $4.99N/A (N/A)20,000 .. 50,0000%00:00 (00:00)
98 Chronicles of a Dark Lord: Episode 1 Tides of Fate Complete Dec 19, 2014 N/AN/A (N/A)50,000 .. 100,0000%00:00 (00:00)
99 Four Sided Fantasy Aug 30, 2016 $9.99N/A (N/A)50,000 .. 100,0000%00:00 (00:00)
100 Bermuda Mar 17, 2015 $2.99N/A (N/A)20,000 .. 50,0000%00:00 (00:00)
101 Ukrainian Ninja Dec 23, 2014 FreeN/A (N/A)100,000 .. 200,0000%00:00 (00:00)
102 TIMEframe Jul 7, 2015 $5.99N/A (N/A)50,000 .. 100,0000%00:00 (00:00)
103 Tomb of Tyrants Jun 25, 2015 $7.99N/A (N/A)20,000 .. 50,0000%00:00 (00:00)
104 On A Roll 3D Feb 12, 2015 $3.99N/A (N/A)0 .. 20,0000%00:00 (00:00)
105 Glorkian Warrior: The Trials Of Glork Mar 24, 2015 $3.99N/A (N/A)20,000 .. 50,0000%00:00 (00:00)
106 Countless Rooms of Death Jan 9, 2015 $0.99N/A (N/A)20,000 .. 50,0000%00:00 (00:00)
107 It came from space and ate our brains Mar 19, 2015 $9.99N/A (N/A)0 .. 20,0000%00:00 (00:00)
108 Disillusions Manga Horror Jan 16, 2015 $0.99N/A (N/A)20,000 .. 50,0000%00:00 (00:00)
109 Three Fourths Home: Extended Edition Mar 20, 2015 $4.99N/A (N/A/77%)20,000 .. 50,0000%00:00 (00:00)
110 The Cursed Forest Feb 26, 2019 $13.99N/A (N/A)20,000 .. 50,0000%00:00 (00:00)
111 Rats - Time is running out! Aug 19, 2015 N/AN/A (N/A)50,000 .. 100,0000%00:00 (00:00)
112 Starship Traveller Mar 11, 2015 $4.99N/A (N/A)0 .. 20,0000%00:00 (00:00)
113 Scribble Space Jun 1, 2015 $1.99N/A (N/A)20,000 .. 50,0000%00:00 (00:00)
114 Reflections Jun 26, 2015 $9.99N/A (N/A)0 .. 20,0000%00:00 (00:00)
115 Porcunipine May 21, 2015 $9.99N/A (N/A)20,000 .. 50,0000%00:00 (00:00)
116 Star Horizon May 28, 2015 $9.99N/A (N/A)0 .. 20,0000%00:00 (00:00)
117 Miner Warfare Apr 6, 2012 $2.99N/A (N/A)20,000 .. 50,0000%00:00 (00:00)
118 NEO AQUARIUM - The King of Crustaceans - Jun 8, 2015 $8.99N/A (N/A)20,000 .. 50,0000%00:00 (00:00)
119 Reign of Bullets Aug 19, 2015 $9.99N/A (N/A)0 .. 20,0000%00:00 (00:00)
120 Leo’s Fortune - HD Edition Sep 8, 2015 $6.99N/A (N/A)0 .. 20,0000%00:00 (00:00)
121 Centauri Sector Jun 24, 2015 $4.99N/A (N/A)0 .. 20,0000%00:00 (00:00)
122 Home is Where One Starts... May 12, 2015 $2.99N/A (N/A)20,000 .. 50,0000%00:00 (00:00)
123 Beyond Eyes Aug 11, 2015 N/AN/A (N/A/60%)100,000 .. 200,0000%00:00 (00:00)
124 Orbit HD Mar 18, 2015 $1.99N/A (N/A)50,000 .. 100,0000%00:00 (00:00)
125 Soccer Rage Jun 2, 2015 $9.99N/A (N/A)50,000 .. 100,0000%00:00 (00:00)
126 Big Action Mega Fight! Jan 12, 2016 $1.99N/A (N/A)20,000 .. 50,0000%00:00 (00:00)
127 Gryphon Knight Epic Aug 20, 2015 $9.99N/A (N/A/55%)20,000 .. 50,0000%00:00 (00:00)
128 Canabalt Apr 30, 2015 $2.99N/A (N/A)20,000 .. 50,0000%00:00 (00:00)
129 Hare In The Hat Apr 1, 2015 $1.99N/A (N/A)50,000 .. 100,0000%00:00 (00:00)
130 Kiai Resonance Apr 23, 2015 $4.99N/A (N/A)20,000 .. 50,0000%00:00 (00:00)
131 Spellsworn Mar 13, 2018 FreeN/A (N/A)100,000 .. 200,0000%00:00 (00:00)
132 Luna Sky Oct 2, 2015 $12.99N/A (N/A)50,000 .. 100,0000%00:00 (00:00)
133 Interstellar Rift Sep 24, 2020 $19.99N/A (N/A)50,000 .. 100,0000%00:00 (00:00)
134 AdvertCity Jun 5, 2015 $11.99N/A (N/A)0 .. 20,0000%00:00 (00:00)
135 Vernon's Legacy Sep 23, 2016 $11.99N/A (N/A)0 .. 20,0000%00:00 (00:00)
136 Polyball Dec 1, 2017 $3.99N/A (N/A)200,000 .. 500,0000%00:00 (00:00)
137 Treeker: The Lost Glasses Remake May 13, 2015 $2.99N/A (N/A)0 .. 20,0000%00:00 (00:00)
138 Season of 12 Colors Mar 14, 2016 $2.99N/A (N/A)50,000 .. 100,0000%00:00 (00:00)
139 Cosmophony Jul 9, 2015 $4.99N/A (N/A)20,000 .. 50,0000%00:00 (00:00)
140 Impossiball Aug 8, 2017 $0.99N/A (N/A)0 .. 20,0000%00:00 (00:00)
141 Pizza Express Jun 25, 2015 $6.99N/A (N/A)20,000 .. 50,0000%00:00 (00:00)
142 Football, Tactics & Glory Jun 1, 2018 $24.99N/A (N/A)500,000 .. 1,000,0000%00:00 (00:00)
143 The Adventures of Mr. Bobley Jul 1, 2015 $1.99N/A (N/A)50,000 .. 100,0000%00:00 (00:00)
144 Monument Jun 5, 2015 $1.99N/A (N/A)20,000 .. 50,0000%00:00 (00:00)
145 Western Press Apr 21, 2016 $4.99N/A (N/A)20,000 .. 50,0000%00:00 (00:00)
146 Fortify Apr 8, 2016 $4.99N/A (N/A)20,000 .. 50,0000%00:00 (00:00)
147 Sky Rogue Aug 24, 2017 $19.99N/A (N/A)50,000 .. 100,0000%00:00 (00:00)
148 Action Alien Jun 26, 2015 $0.99N/A (N/A)100,000 .. 200,0000%00:00 (00:00)
149 8Bit Fiesta - Party Game Sep 30, 2016 FreeN/A (N/A)50,000 .. 100,0000%00:00 (00:00)
150 Mu Complex Oct 23, 2015 $8.99N/A (N/A)0 .. 20,0000%00:00 (00:00)
151 Dead In Bermuda Aug 27, 2015 $14.99N/A (N/A)20,000 .. 50,0000%00:00 (00:00)
152 Aviary Attorney Dec 21, 2015 $14.99N/A (N/A/77%)20,000 .. 50,0000%00:00 (00:00)
153 none Nov 4, 2015 N/AN/A (N/A)20,000 .. 50,0000%00:00 (00:00)
154 A.I. Invasion Sep 30, 2015 $9.99N/A (N/A)0 .. 20,0000%00:00 (00:00)
155 Earth Overclocked Dec 4, 2015 $4.99N/A (N/A)20,000 .. 50,0000%00:00 (00:00)
156 iZBOT Sep 1, 2015 $11.99N/A (N/A)0 .. 20,0000%00:00 (00:00)
157 Deserter Simulator Jul 30, 2015 N/AN/A (N/A)0 .. 20,0000%00:00 (00:00)
158 Redemption: Eternal Quest Aug 28, 2015 $0.99N/A (N/A)50,000 .. 100,0000%00:00 (00:00)
159 Void Invaders Aug 14, 2015 $2.99N/A (N/A)50,000 .. 100,0000%00:00 (00:00)
160 Blaster Shooter GunGuy! Aug 10, 2015 $1.99N/A (N/A)100,000 .. 200,0000%00:00 (00:00)
161 Wild Island Quest Sep 4, 2015 $1.99N/A (N/A)50,000 .. 100,0000%00:00 (00:00)
162 Moonbase 332 May 20, 2015 $4.99N/A (N/A)20,000 .. 50,0000%00:00 (00:00)
163 Dragon's Wake Dec 10, 2015 $3.99N/A (N/A)20,000 .. 50,0000%00:00 (00:00)
164 Kitchen Simulator 2015 Sep 2, 2015 $0.99N/A (N/A)20,000 .. 50,0000%00:00 (00:00)
165 Press X to Not Die Oct 6, 2017 $2.99N/A (N/A)100,000 .. 200,0000%00:00 (00:00)
166 Club Life Apr 13, 2016 $12.99N/A (N/A)20,000 .. 50,0000%00:00 (00:00)
167 Jet Set Knights Jan 1, 2016 $9.99N/A (N/A)0 .. 20,0000%00:00 (00:00)
168 Sunken Dec 3, 2015 FreeN/A (N/A)0 .. 20,0000%00:00 (00:00)
169 1,000 Heads Among the Trees Dec 11, 2015 $4.99N/A (N/A)50,000 .. 100,0000%00:00 (00:00)
170 Timber and Stone Oct 20, 2015 $4.99N/A (N/A)20,000 .. 50,0000%00:00 (00:00)
171 The Purring Quest Nov 12, 2015 $9.99N/A (N/A)100,000 .. 200,0000%00:00 (00:00)
172 Faron's Fate Oct 15, 2015 $0.99N/A (N/A)0 .. 20,0000%00:00 (00:00)
173 Morphine Oct 28, 2015 $2.99N/A (N/A)50,000 .. 100,0000%00:00 (00:00)
174 Days Under Custody Nov 23, 2015 $4.99N/A (N/A)20,000 .. 50,0000%00:00 (00:00)
175 Heavy Gear Assault Feb 10, 2017 N/AN/A (N/A)20,000 .. 50,0000%00:00 (00:00)
176 Planet Diver Nov 30, 2015 $3.99N/A (N/A)0 .. 20,0000%00:00 (00:00)
177 Cosmic Leap Mar 17, 2016 $0.99N/A (N/A)50,000 .. 100,0000%00:00 (00:00)
178 Godus Wars Feb 3, 2016 $14.99N/A (N/A)50,000 .. 100,0000%00:00 (00:00)
179 Bell Ringer Mar 18, 2016 $6.99N/A (N/A)100,000 .. 200,0000%00:00 (00:00)
180 Space Moth DX Jan 22, 2016 $4.99N/A (N/A)20,000 .. 50,0000%00:00 (00:00)
181 PERFECT ANGLE: The puzzle game based on optical illusions Dec 22, 2015 $9.99N/A (N/A)100,000 .. 200,0000%00:00 (00:00)
182 TurnOn Jun 1, 2016 $14.99N/A (N/A/67%)20,000 .. 50,0000%00:00 (00:00)
183 IMSCARED Feb 3, 2016 $3.99N/A (N/A)100,000 .. 200,0000%00:00 (00:00)
184 Tiny Guardians Mar 24, 2016 $9.99N/A (N/A)0 .. 20,0000%00:00 (00:00)
185 Doodle Kingdom Jun 9, 2016 $8.99N/A (N/A)20,000 .. 50,0000%00:00 (00:00)
186 Rencounter Nov 4, 2016 $5.99N/A (N/A)50,000 .. 100,0000%00:00 (00:00)
187 Evertown Jan 11, 2016 $1.99N/A (N/A)20,000 .. 50,0000%00:00 (00:00)
188 Flobe Feb 22, 2016 $0.99N/A (N/A)50,000 .. 100,0000%00:00 (00:00)
189 10 Second Ninja X Jul 19, 2016 $9.99N/A (N/A)200,000 .. 500,0001.24%00:04 (00:03)
190 Binaries Apr 4, 2016 $9.99N/A (N/A)0 .. 20,0000%00:00 (00:00)
191 Empire of the Gods May 13, 2008 $1.99N/A (N/A)20,000 .. 50,0000%00:00 (00:00)
192 Mindless Running Feb 22, 2016 $0.99N/A (N/A)20,000 .. 50,0000%00:00 (00:00)
193 Mimpi Dreams Mar 22, 2016 FreeN/A (N/A)20,000 .. 50,0000%00:00 (00:00)
194 Share May 3, 2016 $0.99N/A (N/A)20,000 .. 50,0000%00:00 (00:00)
195 Yon Paradox May 6, 2016 $2.99N/A (N/A)0 .. 20,0000%00:00 (00:00)
196 Amigdala Mar 28, 2016 FreeN/A (N/A)20,000 .. 50,0000%00:00 (00:00)
197 Cube Land Arena Mar 29, 2016 $3.99N/A (N/A)50,000 .. 100,0000%00:00 (00:00)
198 Hero Quest: Tower Conflict Apr 13, 2016 $1.99N/A (N/A)200,000 .. 500,0000%00:00 (00:00)
199 CrazyCars3D Mar 28, 2016 $2.99N/A (N/A)50,000 .. 100,0000%00:00 (00:00)
200 MetaTron Dec 19, 2016 N/AN/A (N/A)0 .. 20,0000%00:00 (00:00)
201 Mainlining Jan 26, 2017 $12.99N/A (N/A/73%)100,000 .. 200,0000%00:00 (00:00)
202 StarsOne Apr 8, 2016 $9.99N/A (N/A)0 .. 20,0000%00:00 (00:00)
203 OPUS: The Day We Found Earth Apr 22, 2016 $14.99N/A (N/A)100,000 .. 200,0000%00:00 (00:00)
204 Wrath of Anna Apr 2, 2018 $19.99N/A (N/A)50,000 .. 100,0000%00:00 (00:00)
205 Dashy Square Apr 26, 2016 $2.99N/A (N/A)0 .. 20,0000%00:00 (00:00)
206 NORTH Apr 27, 2016 $1.99N/A (N/A)200,000 .. 500,0000%00:00 (00:00)
207 上帝之城 I:监狱帝国 [City of God I - Prison Empire] Jul 9, 2018 $18.99N/A (N/A)100,000 .. 200,0000%00:00 (00:00)
208 Angel Express [Tokkyu Tenshi] Jul 15, 2016 $9.99N/A (N/A)0 .. 20,0000%00:00 (00:00)
209 The Nest Jun 14, 2016 FreeN/A (N/A)0 .. 20,0000%00:00 (00:00)
210 Scanner Sombre Apr 26, 2017 $5.99N/A (N/A/67%)100,000 .. 200,0000%00:00 (00:00)
211 ORCS May 20, 2016 $1.99N/A (N/A)50,000 .. 100,0000%00:00 (00:00)
212 Reflection of Mine Feb 24, 2017 $7.99N/A (N/A)20,000 .. 50,0000%00:00 (00:00)
213 Star Drifter Jun 1, 2016 $1.99N/A (N/A)200,000 .. 500,0000%00:00 (00:00)
214 Call Of The Mighty Warriors Jun 2, 2016 $3.99N/A (N/A)20,000 .. 50,0000%00:00 (00:00)
215 Karma Miwa Aug 12, 2016 FreeN/A (N/A)20,000 .. 50,0000%00:00 (00:00)
216 Super Duper Party Pooper Jun 6, 2016 $0.99N/A (N/A/40%)100,000 .. 200,0000%00:00 (00:00)
217 DashBored Jun 13, 2016 $4.99N/A (N/A)50,000 .. 100,0000%00:00 (00:00)
218 Robot Legions Reborn Jul 19, 2016 $2.99N/A (N/A)20,000 .. 50,0000%00:00 (00:00)
219 Pixel Cup Soccer 17 Nov 1, 2021 N/AN/A (N/A)0 .. 20,0000%00:00 (00:00)
220 You Deserve Aug 19, 2016 $0.99N/A (N/A)0 .. 20,0000%00:00 (00:00)
221 Dinosaur Forest May 17, 2017 $0.99N/A (N/A)100,000 .. 200,0000%00:00 (00:00)
222 Wheels of Aurelia Sep 20, 2016 $14.99N/A (N/A/63%)20,000 .. 50,0000%00:00 (00:00)
223 Showdown Adventure Sep 21, 2016 N/AN/A (N/A)20,000 .. 50,0000%00:00 (00:00)
224 Joana's Life Sep 1, 2016 $1.99N/A (N/A)50,000 .. 100,0000%00:00 (00:00)
225 Intensive Exposure Sep 6, 2016 $4.99N/A (N/A)20,000 .. 50,0000%00:00 (00:00)
226 It Comes Around - A Kinetic Novel Sep 29, 2016 $2.99N/A (N/A)0 .. 20,0000%00:00 (00:00)
227 Starship Annihilator Sep 2, 2016 $1.99N/A (N/A)200,000 .. 500,0000%00:00 (00:00)
228 Deisim Sep 1, 2022 $14.99N/A (N/A)20,000 .. 50,00033.33%02:29 (01:14)
229 The Gleam: VR Escape the Room Oct 14, 2016 $3.99N/A (N/A)50,000 .. 100,0000%00:00 (00:00)
230 Please, Don't Touch Anything 3D Dec 7, 2016 $9.99N/A (N/A)50,000 .. 100,0000%00:00 (00:00)
231 mr.President Prologue Episode Sep 20, 2016 $0.99N/A (N/A)50,000 .. 100,0000%00:00 (00:00)
232 BoomTown! Deluxe Oct 14, 2016 $0.99N/A (N/A)50,000 .. 100,0000%00:00 (00:00)
233 Son of a Witch May 16, 2018 $19.99N/A (N/A)0 .. 20,0000%00:00 (00:00)
234 Pixel Gladiator Sep 8, 2017 $4.99N/A (N/A)20,000 .. 50,0000%00:00 (00:00)
235 Snake Pass Mar 28, 2017 $4.99N/A (N/A)500,000 .. 1,000,0000%00:00 (00:00)
236 Wayout Nov 4, 2016 $0.99N/A (N/A)50,000 .. 100,0000%00:00 (00:00)
237 Zolg Dec 2, 2016 $0.99N/A (N/A)50,000 .. 100,0000%00:00 (00:00)
238 99Vidas Dec 22, 2016 $12.99N/A (N/A/69%)50,000 .. 100,0000%00:00 (00:00)
239 Witch It Oct 22, 2020 $19.99N/A (N/A)500,000 .. 1,000,0000.99%00:43 (00:28)
240 Introvert Quest Mar 15, 2017 $2.99N/A (N/A)100,000 .. 200,0000%00:00 (00:00)
241 Distant Space Dec 20, 2016 $0.99N/A (N/A)100,000 .. 200,0004.17%07:03 (02:21)
242 Child Phobia: Nightcoming Fears Dec 20, 2016 $1.99N/A (N/A)20,000 .. 50,0000%00:00 (00:00)
243 Mistwood Heroes Dec 30, 2016 $3.99N/A (N/A)50,000 .. 100,0000%00:00 (00:00)
244 Project LUX Feb 2, 2018 $24.99N/A (N/A)20,000 .. 50,0000%00:00 (00:00)
245 Starship Theory Jul 4, 2017 FreeN/A (N/A)50,000 .. 100,0000%00:00 (00:00)
246 Three Kingdoms The Last Warlord Feb 4, 2021 $3.99N/A (N/A)50,000 .. 100,0000%00:00 (00:00)
247 GORN Jul 18, 2019 $19.99N/A (N/A/85%)200,000 .. 500,0001.75%00:06 (00:02)
248 Open Sorcery Feb 22, 2017 $3.99N/A (N/A)0 .. 20,0000%00:00 (00:00)
249 Monolith Jun 7, 2017 $7.99N/A (N/A/83%)100,000 .. 200,0000%00:00 (00:00)
250 Guns of Icarus Alliance Mar 31, 2017 $4.99N/A (N/A)100,000 .. 200,0000%00:00 (00:00)
251 The Archotek Project Apr 28, 2017 $0.99N/A (N/A)200,000 .. 500,0000%00:00 (00:00)

Tags over time:

Access restricted.

This feature is only available to users with special access rights. Sorry.

If you want to proceed, you need to register or log in first and then back Steam Spy on Patreon. Look for Indie or Pro pledge.

Don't forget to use the same email as on Steam Spy!

If you've recently backed Steam Spy on Patreon, please note, that it might take around 15 minutes for your access rights to sync. In most cases you'll need to re-login on Steam Spy too.

Owners of this game also own:

Access restricted.

This feature is only available to users with special access rights. Sorry.

If you want to proceed, you need to register or log in first and then back Steam Spy on Patreon. Look for Indie or Pro pledge.

Don't forget to use the same email as on Steam Spy!

If you've recently backed Steam Spy on Patreon, please note, that it might take around 15 minutes for your access rights to sync. In most cases you'll need to re-login on Steam Spy too.

Playtime distribution:

Access restricted.

This feature is only available to users with special access rights. Sorry.

If you want to proceed, you need to register or log in first and then back Steam Spy on Patreon. Look for Indie or Pro pledge.

Don't forget to use the same email as on Steam Spy!

If you've recently backed Steam Spy on Patreon, please note, that it might take around 15 minutes for your access rights to sync. In most cases you'll need to re-login on Steam Spy too.

Playtime (2 weeks):

Access restricted.

This feature is only available to users with special access rights. Sorry.

If you want to proceed, you need to register or log in first and then back Steam Spy on Patreon. Look for Indie or Pro pledge.

Don't forget to use the same email as on Steam Spy!

If you've recently backed Steam Spy on Patreon, please note, that it might take around 15 minutes for your access rights to sync. In most cases you'll need to re-login on Steam Spy too.

User reviews:

Login required.

Please register or log in to see this information.